Regional Weather Roundup
Issued by NWS

Home | Current Version | Previous Version | Graphics & Text | Print | Product List | Glossary On
Versions: 1 2 3 4 5 6 7 8 9 10 11 12 13 14 15 16 17 18 19 20 21 22 23 24 25 26 27 28 29 30 31 32 33 34 35 36 37 38 39 40 41 42 43 44 45 46 47 48 49 50
212
ASUS43 KBIS 240210
RWRND

NORTH DAKOTA REGIONAL WEATHER ROUNDUP
NATIONAL WEATHER SERVICE BISMARCK ND
900 PM CDT THU MAR 23 2017

NOTE: "FAIR" INDICATES FEW OR NO CLOUDS BELOW 12,000 FEET WITH NO
SIGNIFICANT WEATHER AND/OR OBSTRUCTIONS TO VISIBILITY.


NDZ001>003-009>011-017-240300-
NORTHWEST NORTH DAKOTA

CITY           SKY/WX    TMP DP  RH WIND       PRES   REMARKS
WILLISTON      CLOUDY    46  37  71 N6        29.87R
MINOT          FAIR      35  31  85 NW8       29.88R
MINOT AFB      PTCLDY    33  30  88 N6        29.88R
$$

NDZ018>021-031>035-040>046-240300-
SOUTHWEST NORTH DAKOTA

CITY           SKY/WX    TMP DP  RH WIND       PRES   REMARKS
BISMARCK       CLOUDY    40  38  93 W5        29.86R
DICKINSON      CLOUDY    42  38  85 SW10      29.85R
GARRISON         N/A     34  31  88 NW8       29.87R
HETTINGER ARPT CLOUDY    40  39  97 W5        29.89R
$$

NDZ004>008-012>016-024-026-027-054-240300-
NORTHEAST NORTH DAKOTA

CITY           SKY/WX    TMP DP  RH WIND       PRES   REMARKS
GRAND FORKS    CLOUDY    36  35  96 SW5       29.86R
GRND FRKS AFB  CLOUDY    35  35  99 NW6       29.87R
DEVILS LAKE    FAIR      33  32  96 CALM      29.85R
$$

NDZ022-023-025-028>030-036>039-047>053-240300-
SOUTHEAST NORTH DAKOTA

CITY           SKY/WX    TMP DP  RH WIND       PRES   REMARKS
FARGO          CLOUDY    36  35  96 E5        29.84R
JAMESTOWN      CLOUDY    35  34  96 N5        29.81R FOG
$$





USA.gov is the U.S. government's official web portal to all federal, state and local government web resources and services.